,,,PA_Meas_PMT16A,,PR_Meas_QMR101_102,,RH_Meas_QMH101,,SR_Meas_QMS101,,TA_Meas_QMH101,,GenWind,,GenWind,
date,time,status,PA,status,PR,status,RH,status,SR,status,TA,status,DirAvg,status,SpdAvg,
2012-02-04, 00:00:04,VALID,1001.79,VALID,0,VALID,94.058,VALID,0.104696,VALID,22.724,VALID,86,VALID,0.810938,
2012-02-04, 00:01:04,VALID,1001.77,VALID,0,VALID,94.0274,VALID,0,VALID,22.7452,VALID,86,VALID,0.933984,
2012-02-04, 00:02:04,VALID,1001.76,VALID,0,VALID,93.974,VALID,0,VALID,22.7045,VALID,86,VALID,0.814062,
2012-02-04, 00:03:04,VALID,1001.77,VALID,0,VALID,93.974,VALID,0.104696,VALID,22.685,VALID,86,VALID,0.955469,
2012-02-04, 00:04:04,VALID,1001.74,VALID,0,VALID,93.9969,VALID,0,VALID,22.7062,VALID,86,VALID,0.908984,
2012-02-04, 00:05:04,VALID,1001.72,VALID,0,VALID,94.0122,VALID,0,VALID,22.7257,VALID,86,VALID,0.831641,
2012-02-04, 00:06:04,VALID,1001.73,VALID,0,VALID,94.0045,VALID,0,VALID,22.7469,VALID,86,VALID,0.719531,
2012-02-04, 00:07:04,VALID,1001.68,VALID,0,VALID,93.9588,VALID,0,VALID,22.7274,VALID,86,VALID,0.636328,
2012-02-04, 00:08:04,VALID,1001.68,VALID,0,VALID,93.9054,VALID,0,VALID,22.6672,VALID,86,VALID,0.489062,
2012-02-04, 00:09:04,VALID,1001.71,VALID,0,VALID,93.9206,VALID,0,VALID,22.6477,VALID,86,VALID,0.625,
2012-02-04, 00:10:04,VALID,1001.71,VALID,0,VALID,93.9435,VALID,0,VALID,22.6477,VALID,86,VALID,0.596875,
2012-02-04, 00:11:04,VALID,1001.72,VALID,0,VALID,93.9283,VALID,0,VALID,22.6477,VALID,86,VALID,0.492578,
2012-02-04, 00:12:04,VALID,1001.74,VALID,0,VALID,93.9511,VALID,0,VALID,22.6282,VALID,83,VALID,0.610156,
2012-02-04, 00:13:04,VALID,1001.74,VALID,0,VALID,93.9511,VALID,0,VALID,22.6282,VALID,68,VALID,0.700391,
2012-02-04, 00:14:04,VALID,1001.76,VALID,0,VALID,93.9511,VALID,0,VALID,22.6087,VALID,50,VALID,0.876953,
2012-02-04, 00:15:04,VALID,1001.74,VALID,0,VALID,93.8901,VALID,0,VALID,22.5892,VALID,49,VALID,0.767187,
2012-02-04, 00:16:04,VALID,1001.77,VALID,0,VALID,93.8367,VALID,0,VALID,22.5306,VALID,49,VALID,0.654688,
2012-02-04, 00:17:04,VALID,1001.78,VALID,0,VALID,93.7757,VALID,0,VALID,22.4916,VALID,46,VALID,0.782422,
2012-02-04, 00:18:04,VALID,1001.77,VALID,0,VALID,93.8291,VALID,0,VALID,22.4331,VALID,39,VALID,1.02695,
2012-02-04, 00:19:04,VALID,1001.78,VALID,0,VALID,93.8825,VALID,0.104696,VALID,22.4314,VALID,39,VALID,1.07539,
2012-02-04, 00:20:04,VALID,1001.8,VALID,0,VALID,93.9588,VALID,0.104696,VALID,22.4509,VALID,39,VALID,1.18242,
2012-02-04, 00:21:04,VALID,1001.81,VALID,0,VALID,94.0808,VALID,0.104696,VALID,22.4704,VALID,39,VALID,1.18867,
2012-02-04, 00:22:04,VALID,1001.82,VALID,0,VALID,94.1724,VALID,0.104696,VALID,22.5289,VALID,44,VALID,1.76836,
2012-02-04, 00:23:04,VALID,1001.91,VALID,0,VALID,94.2792,VALID,0.104696,VALID,22.5874,VALID,45,VALID,2.03789,
2012-02-04, 00:24:04,VALID,1002.06,VALID,0,VALID,94.3403,VALID,0,VALID,22.646,VALID,49,VALID,3.52187,
2012-02-04, 00:25:04,VALID,1002.23,VALID,0,VALID,94.3937,VALID,0.104696,VALID,22.685,VALID,49,VALID,4.50039,
2012-02-04, 00:26:04,VALID,1002.25,VALID,0,VALID,94.4242,VALID,0.104696,VALID,22.7435,VALID,49,VALID,3.83477,
2012-02-04, 00:27:04,VALID,1002.22,VALID,0,VALID,94.4013,VALID,0,VALID,22.724,VALID,46,VALID,5.35781,
2012-02-04, 00:28:04,VALID,1002.28,VALID,0,VALID,94.0732,VALID,0,VALID,22.6069,VALID,43,VALID,5.92969,
2012-02-04, 00:29:04,VALID,1002.22,VALID,1,VALID,92.9211,VALID,0.104696,VALID,22.4509,VALID,31,VALID,5.75313,
2012-02-04, 00:30:04,VALID,1002.06,VALID,0.5,VALID,91.9293,VALID,0.104696,VALID,22.3144,VALID,31,VALID,3.42969,
2012-02-04, 00:31:04,VALID,1002.02,VALID,0.5,VALID,91.7614,VALID,0.104696,VALID,22.2169,VALID,27,VALID,2.62148,
2012-02-04, 00:32:04,VALID,1002.08,VALID,0,VALID,91.3876,VALID,0.104696,VALID,22.1779,VALID,18,VALID,2.87734,
2012-02-04, 00:33:04,VALID,1002.06,VALID,0,VALID,91.4639,VALID,0.104696,VALID,22.1584,VALID,19,VALID,2.9793,
2012-02-04, 00:34:04,VALID,1002.07,VALID,0,VALID,91.235,VALID,0,VALID,22.1405,VALID,28,VALID,2.94609,
2012-02-04, 00:35:04,VALID,1002.06,VALID,0,VALID,91.0824,VALID,0,VALID,22.16,VALID,6,VALID,2.75859,
2012-02-04, 00:36:04,VALID,1002.01,VALID,0,VALID,91.1129,VALID,0,VALID,22.2202,VALID,5,VALID,3.17812,
2012-02-04, 00:37:04,VALID,1002.01,VALID,0,VALID,91.2121,VALID,0,VALID,22.2007,VALID,359,VALID,4.49258,
2012-02-04, 00:38:04,VALID,1001.93,VALID,0,VALID,91.5326,VALID,0,VALID,22.1405,VALID,19,VALID,3.95273,
2012-02-04, 00:39:04,VALID,1001.89,VALID,0.5,VALID,91.502,VALID,0,VALID,22.0642,VALID,21,VALID,3.85898,
2012-02-04, 00:40:04,VALID,1001.85,VALID,0,VALID,91.6851,VALID,0,VALID,22.0057,VALID,3,VALID,2.25039,
2012-02-04, 00:41:04,VALID,1001.82,VALID,0,VALID,91.5707,VALID,0,VALID,21.9472,VALID,360,VALID,2.81641,
2012-02-04, 00:42:04,VALID,1001.76,VALID,0,VALID,91.5707,VALID,0,VALID,21.8675,VALID,345,VALID,2.54609,
2012-02-04, 00:43:04,VALID,1001.69,VALID,0,VALID,91.502,VALID,0,VALID,21.8496,VALID,9,VALID,2.0875,
2012-02-04, 00:44:04,VALID,1001.69,VALID,0,VALID,91.6394,VALID,0,VALID,21.8106,VALID,3,VALID,2.05195,
2012-02-04, 00:45:04,VALID,1001.7,VALID,0,VALID,91.5707,VALID,0,VALID,21.7716,VALID,7,VALID,2.52773,
2012-02-04, 00:46:04,VALID,1001.72,VALID,0,VALID,91.5478,VALID,0,VALID,21.7521,VALID,348,VALID,1.6168,
2012-02-04, 00:47:04,VALID,1001.69,VALID,0,VALID,91.6317,VALID,0,VALID,21.731,VALID,10,VALID,1.8043,
2012-02-04, 00:48:04,VALID,1001.62,VALID,0.5,VALID,91.4715,VALID,0,VALID,21.7115,VALID,4,VALID,2.0293,
2012-02-04, 00:49:04,VALID,1001.64,VALID,0,VALID,91.647,VALID,0,VALID,21.692,VALID,8,VALID,1.06758,
2012-02-04, 00:50:04,VALID,1001.61,VALID,0,VALID,91.8225,VALID,0,VALID,21.6725,VALID,359,VALID,0.933203,
2012-02-04, 00:51:04,VALID,1001.61,VALID,0,VALID,92.0971,VALID,0,VALID,21.7131,VALID,347,VALID,0.0695312,
2012-02-04, 00:52:04,VALID,1001.59,VALID,0,VALID,92.2421,VALID,0,VALID,21.6335,VALID,347,VALID,0.0460938,
2012-02-04, 00:53:04,VALID,1001.61,VALID,0,VALID,92.3718,VALID,0,VALID,21.6335,VALID,348,VALID,0.304688,
2012-02-04, 00:54:04,VALID,1001.56,VALID,0,VALID,92.4176,VALID,0,VALID,21.6351,VALID,100,VALID,1.13437,
2012-02-04, 00:55:04,VALID,1001.53,VALID,0,VALID,92.5091,VALID,0,VALID,21.5945,VALID,114,VALID,1.61641,
2012-02-04, 00:56:04,VALID,1001.49,VALID,0,VALID,92.6541,VALID,0,VALID,21.6335,VALID,118,VALID,2.09336,
2012-02-04, 00:57:04,VALID,1001.43,VALID,0,VALID,92.6923,VALID,0,VALID,21.614,VALID,117,VALID,1.81406,
2012-02-04, 00:58:04,VALID,1001.4,VALID,0,VALID,92.6388,VALID,0,VALID,21.5945,VALID,103,VALID,1.60195,
2012-02-04, 00:59:04,VALID,1001.31,VALID,0,VALID,92.4786,VALID,0,VALID,21.5961,VALID,108,VALID,1.23555,
2012-02-04, 01:00:04,VALID,1001.25,VALID,0.5,VALID,92.4023,VALID,0,VALID,21.5961,VALID,93,VALID,0.767578,
2012-02-04, 01:01:04,VALID,1001.22,VALID,0,VALID,92.4328,VALID,0,VALID,21.5555,VALID,93,VALID,0.825,
2012-02-04, 01:02:04,VALID,1001.17,VALID,0,VALID,92.3718,VALID,0,VALID,21.5766,VALID,98,VALID,0.584766,
2012-02-04, 01:03:04,VALID,1001.12,VALID,0,VALID,92.41,VALID,0,VALID,21.5766,VALID,107,VALID,0.571094,
2012-02-04, 01:04:04,VALID,1001.05,VALID,0,VALID,92.4405,VALID,0,VALID,21.575,VALID,86,VALID,0.894922,
2012-02-04, 01:05:04,VALID,1001.02,VALID,0,VALID,92.5091,VALID,0,VALID,21.5945,VALID,96,VALID,0.897656,
2012-02-04, 01:06:04,VALID,1000.98,VALID,0,VALID,92.5244,VALID,0,VALID,21.6318,VALID,104,VALID,1.00977,
2012-02-04, 01:07:04,VALID,1001,VALID,0,VALID,92.4481,VALID,0,VALID,21.6903,VALID,112,VALID,1.51094,
2012-02-04, 01:08:04,VALID,1001.01,VALID,0,VALID,92.3642,VALID,0,VALID,21.7488,VALID,128,VALID,2.0707,
2012-02-04, 01:09:04,VALID,1001.02,VALID,0,VALID,92.5168,VALID,0,VALID,21.8285,VALID,138,VALID,2,
2012-02-04, 01:10:04,VALID,1000.97,VALID,0,VALID,92.6236,VALID,0,VALID,21.8285,VALID,141,VALID,1.91211,
2012-02-04, 01:11:04,VALID,1000.93,VALID,0,VALID,92.7457,VALID,0,VALID,21.8463,VALID,150,VALID,2.44883,
2012-02-04, 01:12:04,VALID,1000.96,VALID,0,VALID,92.8372,VALID,0,VALID,21.887,VALID,156,VALID,2.23047,
2012-02-04, 01:13:04,VALID,1000.93,VALID,0,VALID,93.0051,VALID,0,VALID,21.8853,VALID,158,VALID,2.48633,
2012-02-04, 01:14:04,VALID,1000.96,VALID,0,VALID,93.1348,VALID,0,VALID,21.9243,VALID,168,VALID,1.80625,
2012-02-04, 01:15:04,VALID,1000.95,VALID,0,VALID,93.1958,VALID,0,VALID,21.965,VALID,170,VALID,2.41172,
2012-02-04, 01:16:04,VALID,1000.91,VALID,0,VALID,93.2721,VALID,0,VALID,21.9845,VALID,176,VALID,2.78984,
2012-02-04, 01:17:04,VALID,1000.96,VALID,0,VALID,93.295,VALID,0,VALID,22.004,VALID,177,VALID,2.85352,
2012-02-04, 01:18:04,VALID,1000.98,VALID,0,VALID,93.3331,VALID,0.104696,VALID,22.0218,VALID,181,VALID,2.43828,
2012-02-04, 01:19:04,VALID,1000.97,VALID,0,VALID,93.3408,VALID,0,VALID,22.0625,VALID,178,VALID,2.35547,
2012-02-04, 01:20:04,VALID,1000.98,VALID,0,VALID,93.295,VALID,0,VALID,22.0837,VALID,180,VALID,2.60742,
2012-02-04, 01:21:04,VALID,1000.99,VALID,0,VALID,93.2034,VALID,0,VALID,22.082,VALID,181,VALID,2.42148,
2012-02-04, 01:22:04,VALID,1000.97,VALID,0,VALID,93.0737,VALID,0,VALID,22.082,VALID,178,VALID,2.00938,
2012-02-04, 01:23:04,VALID,1000.93,VALID,0,VALID,93.0127,VALID,0,VALID,22.082,VALID,172,VALID,2.21367,
2012-02-04, 01:24:04,VALID,1000.94,VALID,0,VALID,93.0356,VALID,0,VALID,22.1015,VALID,177,VALID,2.67188,
2012-02-04, 01:25:04,VALID,1000.95,VALID,0,VALID,92.8677,VALID,0,VALID,22.1032,VALID,162,VALID,1.68398,
2012-02-04, 01:26:04,VALID,1000.94,VALID,0,VALID,92.6617,VALID,0,VALID,22.043,VALID,147,VALID,1.84375,
2012-02-04, 01:27:04,VALID,1000.94,VALID,0,VALID,92.5626,VALID,0,VALID,22.0642,VALID,156,VALID,1.72227,
2012-02-04, 01:28:04,VALID,1000.91,VALID,0.5,VALID,92.5168,VALID,0,VALID,22.0447,VALID,161,VALID,1.2625,
2012-02-04, 01:29:04,VALID,1000.93,VALID,0,VALID,92.5778,VALID,0,VALID,22.004,VALID,147,VALID,0.951953,
2012-02-04, 01:30:04,VALID,1000.88,VALID,0,VALID,92.6388,VALID,0,VALID,21.9845,VALID,147,VALID,0.690625,
2012-02-04, 01:31:04,VALID,1000.85,VALID,0,VALID,92.6617,VALID,0,VALID,22.0057,VALID,150,VALID,0.780469,
2012-02-04, 01:32:04,VALID,1000.83,VALID,0,VALID,92.7151,VALID,0,VALID,21.9862,VALID,145,VALID,1.02891,
2012-02-04, 01:33:04,VALID,1000.79,VALID,0,VALID,92.7457,VALID,0,VALID,21.9667,VALID,142,VALID,0.958594,
2012-02-04, 01:34:04,VALID,1000.78,VALID,0,VALID,92.6923,VALID,0,VALID,21.9455,VALID,157,VALID,1.12969,
2012-02-04, 01:35:04,VALID,1000.78,VALID,0,VALID,92.6465,VALID,0,VALID,21.926,VALID,181,VALID,1.00234,
2012-02-04, 01:36:04,VALID,1000.77,VALID,0,VALID,92.6694,VALID,0,VALID,21.926,VALID,181,VALID,0.209375,
2012-02-04, 01:37:04,VALID,1000.75,VALID,0,VALID,92.7151,VALID,0,VALID,21.9472,VALID,181,VALID,0.212109,
2012-02-04, 01:38:04,VALID,1000.75,VALID,0,VALID,92.7304,VALID,0,VALID,21.887,VALID,181,VALID,0.278125,
2012-02-04, 01:39:04,VALID,1000.75,VALID,0,VALID,92.7304,VALID,0,VALID,21.887,VALID,181,VALID,0.0421875,
2012-02-04, 01:40:04,VALID,1000.73,VALID,0,VALID,92.7151,VALID,0,VALID,21.8675,VALID,92,VALID,0.913672,
2012-02-04, 01:41:04,VALID,1000.67,VALID,0,VALID,92.7685,VALID,0,VALID,21.848,VALID,105,VALID,0.25,
2012-02-04, 01:42:04,VALID,1000.69,VALID,0,VALID,92.7762,VALID,0,VALID,21.8692,VALID,105,VALID,0.432813,
2012-02-04, 01:43:04,VALID,1000.68,VALID,0,VALID,92.7991,VALID,0,VALID,21.8285,VALID,107,VALID,0.503516,
2012-02-04, 01:44:04,VALID,1000.69,VALID,0,VALID,92.8296,VALID,0,VALID,21.8285,VALID,107,VALID,0.374609,
2012-02-04, 01:45:04,VALID,1000.65,VALID,0,VALID,92.8448,VALID,0,VALID,21.8692,VALID,107,VALID,0.407031,
2012-02-04, 01:46:04,VALID,1000.65,VALID,0,VALID,92.9135,VALID,0,VALID,21.8675,VALID,107,VALID,0.472656,
2012-02-04, 01:47:04,VALID,1000.65,VALID,0,VALID,92.9593,VALID,0,VALID,21.8887,VALID,107,VALID,0.388672,
2012-02-04, 01:48:04,VALID,1000.61,VALID,0,VALID,92.9517,VALID,0,VALID,21.8887,VALID,189,VALID,0.663281,
2012-02-04, 01:49:04,VALID,1000.59,VALID,0,VALID,93.0127,VALID,0,VALID,21.9065,VALID,200,VALID,0.741406,
2012-02-04, 01:50:04,VALID,1000.6,VALID,0,VALID,93.0737,VALID,0,VALID,21.926,VALID,246,VALID,0.494141,
2012-02-04, 01:51:04,VALID,1000.61,VALID,0,VALID,93.1653,VALID,0,VALID,21.9472,VALID,246,VALID,0.480078,
2012-02-04, 01:52:04,VALID,1000.59,VALID,0,VALID,93.1805,VALID,0,VALID,21.9277,VALID,253,VALID,0.592188,
2012-02-04, 01:53:04,VALID,1000.6,VALID,0,VALID,93.2034,VALID,0,VALID,21.9082,VALID,288,VALID,0.767187,
2012-02-04, 01:54:04,VALID,1000.59,VALID,0,VALID,93.2416,VALID,0,VALID,21.887,VALID,288,VALID,0.738672,
2012-02-04, 01:55:04,VALID,1000.59,VALID,0,VALID,93.3026,VALID,0,VALID,21.848,VALID,274,VALID,0.714453,
2012-02-04, 01:56:04,VALID,1000.57,VALID,0,VALID,93.3103,VALID,0,VALID,21.8496,VALID,238,VALID,0.889844,
2012-02-04, 01:57:04,VALID,1000.57,VALID,0,VALID,93.3331,VALID,0,VALID,21.8496,VALID,241,VALID,0.4125,
2012-02-04, 01:58:04,VALID,1000.54,VALID,0,VALID,93.3408,VALID,0,VALID,21.8496,VALID,238,VALID,1.04961,
2012-02-04, 01:59:04,VALID,1000.55,VALID,0,VALID,93.3484,VALID,0,VALID,21.8301,VALID,226,VALID,0.833984,
2012-02-04, 02:00:04,VALID,1000.59,VALID,0,VALID,93.3789,VALID,0,VALID,21.8301,VALID,236,VALID,0.526953,
2012-02-04, 02:01:04,VALID,1000.56,VALID,0,VALID,93.3484,VALID,0,VALID,21.809,VALID,236,VALID,0.3125,
2012-02-04, 02:02:04,VALID,1000.55,VALID,0,VALID,93.356,VALID,0,VALID,21.7895,VALID,236,VALID,0.402734,
2012-02-04, 02:03:04,VALID,1000.56,VALID,0,VALID,93.3789,VALID,0,VALID,21.7895,VALID,236,VALID,0.295703,
2012-02-04, 02:04:04,VALID,1000.54,VALID,0,VALID,93.4094,VALID,0,VALID,21.7895,VALID,236,VALID,0.196094,
2012-02-04, 02:05:04,VALID,1000.58,VALID,0,VALID,93.4552,VALID,0,VALID,21.8106,VALID,236,VALID,0,
2012-02-04, 02:06:04,VALID,1000.55,VALID,0,VALID,93.4705,VALID,0,VALID,21.7911,VALID,236,VALID,0,
2012-02-04, 02:07:04,VALID,1000.58,VALID,0,VALID,93.4781,VALID,0,VALID,21.7505,VALID,236,VALID,0.102734,
2012-02-04, 02:08:04,VALID,1000.6,VALID,0,VALID,93.5086,VALID,0,VALID,21.7505,VALID,236,VALID,0.152344,
2012-02-04, 02:09:04,VALID,1000.62,VALID,0,VALID,93.5544,VALID,0,VALID,21.7716,VALID,236,VALID,0.370313,
2012-02-04, 02:10:04,VALID,1000.62,VALID,0,VALID,93.5849,VALID,0,VALID,21.731,VALID,236,VALID,0.624609,
2012-02-04, 02:11:04,VALID,1000.59,VALID,0,VALID,93.6154,VALID,0,VALID,21.7521,VALID,287,VALID,0.664844,
2012-02-04, 02:12:04,VALID,1000.63,VALID,0,VALID,93.6383,VALID,0,VALID,21.731,VALID,287,VALID,0.579297,
2012-02-04, 02:13:04,VALID,1000.61,VALID,0,VALID,93.6688,VALID,0,VALID,21.731,VALID,287,VALID,0.502734,
2012-02-04, 02:14:04,VALID,1000.64,VALID,0,VALID,93.707,VALID,0,VALID,21.7115,VALID,287,VALID,0.353125,
2012-02-04, 02:15:04,VALID,1000.63,VALID,0,VALID,93.7528,VALID,0,VALID,21.7115,VALID,287,VALID,0.387891,
2012-02-04, 02:16:04,VALID,1000.63,VALID,0,VALID,93.768,VALID,0,VALID,21.7115,VALID,287,VALID,0.285937,
2012-02-04, 02:17:04,VALID,1000.62,VALID,0,VALID,93.8062,VALID,0,VALID,21.7131,VALID,287,VALID,0.542969,
2012-02-04, 02:18:04,VALID,1000.61,VALID,0,VALID,93.8291,VALID,0,VALID,21.7131,VALID,287,VALID,0.43125,
2012-02-04, 02:19:04,VALID,1000.62,VALID,0,VALID,93.8596,VALID,0,VALID,21.692,VALID,287,VALID,0.632031,
2012-02-04, 02:20:04,VALID,1000.6,VALID,0,VALID,93.9054,VALID,0,VALID,21.6708,VALID,286,VALID,0.580859,
2012-02-04, 02:21:04,VALID,1000.61,VALID,0,VALID,93.9283,VALID,0,VALID,21.692,VALID,286,VALID,0.789063,
2012-02-04, 02:22:04,VALID,1000.63,VALID,0,VALID,93.9283,VALID,0,VALID,21.6513,VALID,286,VALID,0.691016,
2012-02-04, 02:23:04,VALID,1000.62,VALID,0,VALID,93.9511,VALID,0,VALID,21.6725,VALID,284,VALID,0.398047,
2012-02-04, 02:24:04,VALID,1000.63,VALID,0,VALID,93.9817,VALID,0,VALID,21.6513,VALID,284,VALID,0.464453,
2012-02-04, 02:25:04,VALID,1000.65,VALID,0,VALID,94.0045,VALID,0,VALID,21.653,VALID,284,VALID,0.488672,
2012-02-04, 02:26:04,VALID,1000.65,VALID,0,VALID,94.0122,VALID,0.104696,VALID,21.6335,VALID,284,VALID,0.359375,
2012-02-04, 02:27:04,VALID,1000.64,VALID,0,VALID,94.0045,VALID,0,VALID,21.6335,VALID,284,VALID,0.614844,
2012-02-04, 02:28:04,VALID,1000.62,VALID,0,VALID,94.0274,VALID,0,VALID,21.6335,VALID,284,VALID,0.269922,
2012-02-04, 02:29:04,VALID,1000.61,VALID,0,VALID,94.058,VALID,0,VALID,21.6123,VALID,284,VALID,0.2375,
2012-02-04, 02:30:04,VALID,1000.59,VALID,0,VALID,94.0656,VALID,0,VALID,21.5928,VALID,284,VALID,0,
2012-02-04, 02:31:04,VALID,1000.59,VALID,0,VALID,94.0656,VALID,0,VALID,21.5945,VALID,284,VALID,0.275,
2012-02-04, 02:32:04,VALID,1000.58,VALID,0,VALID,94.0732,VALID,0,VALID,21.575,VALID,284,VALID,0.226172,
2012-02-04, 02:33:04,VALID,1000.55,VALID,0,VALID,94.0656,VALID,0,VALID,21.575,VALID,284,VALID,0,
2012-02-04, 02:34:04,VALID,1000.57,VALID,0,VALID,94.058,VALID,0,VALID,21.5538,VALID,284,VALID,0,
2012-02-04, 02:35:04,VALID,1000.59,VALID,0,VALID,94.0808,VALID,0,VALID,21.5343,VALID,284,VALID,0.170703,
2012-02-04, 02:36:04,VALID,1000.54,VALID,0,VALID,94.0732,VALID,0,VALID,21.536,VALID,125,VALID,0.6,
2012-02-04, 02:37:04,VALID,1000.51,VALID,0,VALID,94.1037,VALID,0,VALID,21.5148,VALID,125,VALID,0.476953,
2012-02-04, 02:38:04,VALID,1000.49,VALID,0,VALID,94.1419,VALID,0,VALID,21.4953,VALID,124,VALID,0.612891,
2012-02-04, 02:39:04,VALID,1000.46,VALID,0,VALID,94.1724,VALID,0,VALID,21.5148,VALID,125,VALID,0.466797,
2012-02-04, 02:40:04,VALID,1000.44,VALID,0,VALID,94.1953,VALID,0,VALID,21.5165,VALID,125,VALID,0.403516,
2012-02-04, 02:41:04,VALID,1000.44,VALID,0,VALID,94.2258,VALID,0.104696,VALID,21.5148,VALID,124,VALID,0.728516,
2012-02-04, 02:42:04,VALID,1000.42,VALID,0,VALID,94.2563,VALID,0,VALID,21.536,VALID,124,VALID,0.773047,
2012-02-04, 02:43:04,VALID,1000.44,VALID,0,VALID,94.264,VALID,0,VALID,21.5343,VALID,124,VALID,0.541406,
2012-02-04, 02:44:04,VALID,1000.41,VALID,0,VALID,94.2868,VALID,0,VALID,21.575,VALID,125,VALID,0.325391,
2012-02-04, 02:45:04,VALID,1000.43,VALID,0,VALID,94.2716,VALID,0.104696,VALID,21.5555,VALID,125,VALID,0.280078,
2012-02-04, 02:46:04,VALID,1000.47,VALID,0,VALID,94.2487,VALID,0,VALID,21.5148,VALID,125,VALID,0.153125,
2012-02-04, 02:47:04,VALID,1000.43,VALID,0,VALID,94.2258,VALID,0,VALID,21.536,VALID,125,VALID,0.59375,
2012-02-04, 02:48:04,VALID,1000.42,VALID,0,VALID,94.2334,VALID,0,VALID,21.536,VALID,125,VALID,0.575781,
2012-02-04, 02:49:04,VALID,1000.4,VALID,0,VALID,94.264,VALID,0,VALID,21.536,VALID,125,VALID,0.609766,
2012-02-04, 02:50:04,VALID,1000.43,VALID,0,VALID,94.2945,VALID,0,VALID,21.5571,VALID,125,VALID,0.622656,
2012-02-04, 02:51:04,VALID,1000.43,VALID,0,VALID,94.2716,VALID,0,VALID,21.536,VALID,125,VALID,0.489844,
2012-02-04, 02:52:04,VALID,1000.44,VALID,0,VALID,94.264,VALID,0,VALID,21.5165,VALID,125,VALID,0.18125,
2012-02-04, 02:53:04,VALID,1000.42,VALID,0,VALID,94.2487,VALID,0,VALID,21.5376,VALID,125,VALID,0,
2012-02-04, 02:54:04,VALID,1000.48,VALID,0,VALID,94.264,VALID,0,VALID,21.497,VALID,125,VALID,0,
2012-02-04, 02:55:04,VALID,1000.45,VALID,0,VALID,94.2792,VALID,0,VALID,21.5181,VALID,125,VALID,0.544531,
2012-02-04, 02:56:04,VALID,1000.45,VALID,0,VALID,94.325,VALID,0,VALID,21.5165,VALID,124,VALID,0.759375,
2012-02-04, 02:57:04,VALID,1000.45,VALID,0,VALID,94.3708,VALID,0,VALID,21.536,VALID,124,VALID,0.754687,
2012-02-04, 02:58:04,VALID,1000.45,VALID,0,VALID,94.3937,VALID,0,VALID,21.5571,VALID,125,VALID,0.510938,
2012-02-04, 02:59:04,VALID,1000.42,VALID,0,VALID,94.386,VALID,0,VALID,21.536,VALID,125,VALID,0.459766,
2012-02-04, 03:00:04,VALID,1000.4,VALID,0,VALID,94.3937,VALID,0,VALID,21.5165,VALID,125,VALID,0.0121094,
2012-02-04, 03:01:04,VALID,1000.4,VALID,0,VALID,94.386,VALID,0,VALID,21.5165,VALID,125,VALID,0,
2012-02-04, 03:02:04,VALID,1000.41,VALID,0,VALID,94.386,VALID,0,VALID,21.5181,VALID,125,VALID,0,
2012-02-04, 03:03:04,VALID,1000.4,VALID,0,VALID,94.4013,VALID,0,VALID,21.497,VALID,125,VALID,0,
2012-02-04, 03:04:04,VALID,1000.41,VALID,0,VALID,94.386,VALID,0,VALID,21.4775,VALID,125,VALID,0.278906,
2012-02-04, 03:05:04,VALID,1000.42,VALID,0,VALID,94.3937,VALID,0,VALID,21.4775,VALID,125,VALID,0.299219,
2012-02-04, 03:06:04,VALID,1000.39,VALID,0,VALID,94.4242,VALID,0,VALID,21.4775,VALID,125,VALID,0.285156,
2012-02-04, 03:07:04,VALID,1000.4,VALID,0,VALID,94.4242,VALID,0,VALID,21.458,VALID,125,VALID,0.260547,
2012-02-04, 03:08:04,VALID,1000.4,VALID,0,VALID,94.4623,VALID,0,VALID,21.4775,VALID,125,VALID,0.382031,
2012-02-04, 03:09:04,VALID,1000.34,VALID,0,VALID,94.47,VALID,0,VALID,21.497,VALID,125,VALID,0.363672,
2012-02-04, 03:10:04,VALID,1000.38,VALID,0,VALID,94.5157,VALID,0,VALID,21.497,VALID,125,VALID,0.297656,
2012-02-04, 03:11:04,VALID,1000.37,VALID,0,VALID,94.5386,VALID,0,VALID,21.497,VALID,125,VALID,0.216797,
2012-02-04, 03:12:04,VALID,1000.39,VALID,0,VALID,94.5234,VALID,0,VALID,21.5376,VALID,125,VALID,0.259766,
2012-02-04, 03:13:04,VALID,1000.38,VALID,0,VALID,94.5615,VALID,0,VALID,21.5376,VALID,125,VALID,0.312891,
2012-02-04, 03:14:04,VALID,1000.42,VALID,0,VALID,94.5462,VALID,0,VALID,21.5181,VALID,125,VALID,0.483594,
2012-02-04, 03:15:04,VALID,1000.41,VALID,0,VALID,94.5539,VALID,0,VALID,21.497,VALID,124,VALID,0.577734,
2012-02-04, 03:16:04,VALID,1000.41,VALID,0,VALID,94.5768,VALID,0,VALID,21.5376,VALID,124,VALID,0.579687,
2012-02-04, 03:17:04,VALID,1000.43,VALID,0,VALID,94.5844,VALID,0,VALID,21.5165,VALID,124,VALID,0.6125,
2012-02-04, 03:18:04,VALID,1000.43,VALID,0,VALID,94.5844,VALID,0,VALID,21.5165,VALID,124,VALID,0.614844,
2012-02-04, 03:19:04,VALID,1000.46,VALID,0,VALID,94.6226,VALID,0,VALID,21.5165,VALID,125,VALID,0.454688,
2012-02-04, 03:20:04,VALID,1000.47,VALID,0,VALID,94.6149,VALID,0,VALID,21.497,VALID,125,VALID,0.392188,
2012-02-04, 03:21:04,VALID,1000.47,VALID,0,VALID,94.6073,VALID,0,VALID,21.4775,VALID,124,VALID,0.475781,
2012-02-04, 03:22:04,VALID,1000.45,VALID,0,VALID,94.6302,VALID,0,VALID,21.4775,VALID,125,VALID,0.525781,
2012-02-04, 03:23:04,VALID,1000.41,VALID,0,VALID,94.6073,VALID,0,VALID,21.458,VALID,124,VALID,0.492188,
2012-02-04, 03:24:04,VALID,1000.42,VALID,0,VALID,94.6302,VALID,0,VALID,21.4596,VALID,125,VALID,0.398047,
2012-02-04, 03:25:04,VALID,1000.43,VALID,0,VALID,94.6149,VALID,0,VALID,21.4596,VALID,125,VALID,0.393359,
2012-02-04, 03:26:04,VALID,1000.41,VALID,0,VALID,94.6149,VALID,0,VALID,21.419,VALID,124,VALID,0.454297,
2012-02-04, 03:27:04,VALID,1000.42,VALID,0,VALID,94.6073,VALID,0,VALID,21.419,VALID,103,VALID,0.738672,
2012-02-04, 03:28:04,VALID,1000.38,VALID,0,VALID,94.6149,VALID,0,VALID,21.3995,VALID,61,VALID,0.720703,
2012-02-04, 03:29:04,VALID,1000.38,VALID,0,VALID,94.6302,VALID,0,VALID,21.4011,VALID,61,VALID,0.475781,
2012-02-04, 03:30:04,VALID,1000.36,VALID,0,VALID,94.6302,VALID,0,VALID,21.38,VALID,61,VALID,0.330469,
2012-02-04, 03:31:04,VALID,1000.34,VALID,0,VALID,94.6226,VALID,0,VALID,21.3605,VALID,61,VALID,0.250781,
2012-02-04, 03:32:04,VALID,1000.33,VALID,0,VALID,94.6302,VALID,0,VALID,21.3621,VALID,61,VALID,0.180469,
2012-02-04, 03:33:04,VALID,1000.32,VALID,0,VALID,94.6378,VALID,0,VALID,21.341,VALID,61,VALID,0.198047,
2012-02-04, 03:34:04,VALID,1000.33,VALID,0,VALID,94.6531,VALID,0,VALID,21.3605,VALID,61,VALID,0.436328,
2012-02-04, 03:35:04,VALID,1000.33,VALID,0,VALID,94.6836,VALID,0,VALID,21.4011,VALID,61,VALID,0.485938,
2012-02-04, 03:36:04,VALID,1000.36,VALID,0,VALID,94.7065,VALID,0,VALID,21.3995,VALID,61,VALID,0.423828,
2012-02-04, 03:37:04,VALID,1000.35,VALID,0,VALID,94.7217,VALID,0,VALID,21.419,VALID,61,VALID,0.151562,
2012-02-04, 03:38:04,VALID,1000.36,VALID,0,VALID,94.7294,VALID,0,VALID,21.419,VALID,61,VALID,0.0984375,
2012-02-04, 03:39:04,VALID,1000.36,VALID,0,VALID,94.7294,VALID,0,VALID,21.419,VALID,61,VALID,0,
2012-02-04, 03:40:04,VALID,1000.37,VALID,0,VALID,94.7217,VALID,0,VALID,21.419,VALID,61,VALID,0,
2012-02-04, 03:41:04,VALID,1000.39,VALID,0,VALID,94.7294,VALID,0,VALID,21.419,VALID,61,VALID,0,
2012-02-04, 03:42:04,VALID,1000.43,VALID,0,VALID,94.737,VALID,0,VALID,21.419,VALID,61,VALID,0,
2012-02-04, 03:43:04,VALID,1000.43,VALID,0,VALID,94.737,VALID,0,VALID,21.4385,VALID,61,VALID,0,
2012-02-04, 03:44:04,VALID,1000.42,VALID,0,VALID,94.7675,VALID,0,VALID,21.4385,VALID,61,VALID,0,
2012-02-04, 03:45:04,VALID,1000.39,VALID,0,VALID,94.7523,VALID,0,VALID,21.4385,VALID,61,VALID,0,
2012-02-04, 03:46:04,VALID,1000.39,VALID,0,VALID,94.7523,VALID,0,VALID,21.4596,VALID,61,VALID,0,